QPF
0.00 0.00 0.00 0.00 0.00 0.00 0.00 0.00 0.00 0.00 0.00 0.00 0.00 0.00 0.00 0.00 0.01 0.03 0.05 0.02 0.00 0.00 0.00 0.00 0.00 0.00 0.00 0.00 0.03 0.05 0.03 0.04 0.02 0.00 0.00 0.00 0.00 0.00 0.00 0.01 0.00 0.00 0.00
0.00 0.00 0.00 0.00 0.00 0.00 0.00 0.00 0.00 0.00 0.00 0.00 0.00 0.01 0.02 0.05 0.09 0.09 0.07 0.01 0.01 0.00 0.01 0.00 0.00 0.00 0.02 0.03 0.11 0.18 0.12 0.03 0.02 0.00 0.00 0.00 0.00 0.00 0.00 0.00 0.00 0.00 0.00
0.00 0.00 0.00 0.00 0.00 0.00 0.00 0.00 0.00 0.00 0.00 0.01 0.03 0.06 0.13 0.13 0.12 0.08 0.05 0.07 0.06 0.04 0.01 0.00 0.01 0.01 0.03 0.09 0.18 0.21 0.11 0.04 0.02 0.00 0.00 0.00 0.00 0.00 0.00 0.00 0.00 0.00 0.00
0.00 0.00 0.00 0.00 0.00 0.00 0.00 0.00 0.00 0.01 0.02 0.06 0.07 0.06 0.02 0.04 0.06 0.07 0.09 0.13 0.08 0.05 0.04 0.02 0.03 0.01 0.02 0.03 0.09 0.17 0.13 0.06 0.02 0.01 0.00 0.00 0.00 0.00 0.00 0.00 0.00 0.00 0.00
0.00 0.00 0.00 0.00 0.00 0.00 0.00 0.00 0.00 0.01 0.03 0.05 0.06 0.07 0.03 0.01 0.01 0.01 0.01 0.03 0.04 0.05 0.03 0.06 0.02 0.01 0.02 0.01 0.02 0.07 0.05 0.06 0.02 0.01 0.01 0.00 0.00 0.00 0.00 0.00 0.00 0.00 0.00
0.00 0.00 0.00 0.00 0.00 0.00 0.00 0.00 0.00 0.00 0.01 0.02 0.04 0.02 0.02 0.01 0.00 0.00 0.00 0.02 0.03 0.01 0.01 0.03 0.01 0.02 0.02 0.01 0.03 0.07 0.08 0.13 0.10 0.03 0.01 0.00 0.00 0.00 0.00 0.00 0.00 0.00 0.00
0.00 0.00 0.00 0.00 0.01 0.00 0.00 0.01 0.01 0.00 0.00 0.00 0.01 0.01 0.00 0.00 0.00 0.00 0.00 0.01 0.01 0.01 0.02 0.05 0.03 0.03 0.04 0.03 0.02 0.02 0.03 0.08 0.12 0.06 0.05 0.01 0.00 0.00 0.00 0.00 0.00 0.00 0.00
0.00 0.00 0.00 0.01 0.03 0.07 0.07 0.07 0.05 0.02 0.01 0.01 0.01 0.00 0.00 0.00 0.00 0.00 0.00 0.00 0.01 0.03 0.04 0.05 0.05 0.07 0.06 0.05 0.04 0.02 0.02 0.02 0.06 0.05 0.04 0.01 0.00 0.00 0.00 0.00 0.00 0.00 0.00
0.00 0.00 0.00 0.02 0.03 0.04 0.06 0.04 0.03 0.01 0.00 0.00 0.00 0.00 0.00 0.00 0.00 0.00 0.00 0.00 0.00 0.00 0.01 0.04 0.04 0.05 0.06 0.06 0.06 0.03 0.01 0.01 0.02 0.04 0.03 0.03 0.02 0.01 0.01 0.02 0.01 0.01 0.00
0.02 0.06 0.08 0.07 0.06 0.04 0.02 0.01 0.00 0.00 0.00 0.00 0.00 0.00 0.00 0.00 0.00 0.00 0.00 0.00 0.00 0.00 0.00 0.01 0.02 0.03 0.02 0.02 0.03 0.02 0.01 0.02 0.02 0.03 0.02 0.03 0.02 0.01 0.01 0.01 0.01 0.01 0.01
0.03 0.06 0.23 0.17 0.07 0.04 0.03 0.01 0.00 0.00 0.00 0.00 0.00 0.00 0.00 0.00 0.00 0.00 0.00 0.00 0.00 0.00 0.00 0.00 0.02 0.04 0.04 0.03 0.01 0.00 0.01 0.02 0.03 0.04 0.02 0.03 0.02 0.01 0.00 0.00 0.01 0.01 0.01
0.01 0.04 0.12 0.07 0.04 0.03 0.02 0.00 0.00 0.00 0.00 0.00 0.00 0.00 0.00 0.00 0.00 0.00 0.00 0.00 0.00 0.00 0.00 0.00 0.00 0.01 0.03 0.06 0.04 0.01 0.00 0.01 0.01 0.03 0.04 0.02 0.02 0.00 0.00 0.00 0.01 0.00 0.00
0.00 0.02 0.04 0.01 0.01 0.00 0.00 0.00 0.00 0.00 0.00 0.00 0.00 0.00 0.00 0.00 0.00 0.00 0.00 0.00 0.00 0.00 0.00 0.00 0.00 0.00 0.02 0.04 0.03 0.02 0.01 0.02 0.02 0.02 0.03 0.03 0.02 0.00 0.00 0.01 0.01 0.01 0.00
0.00 0.00 0.00 0.00 0.00 0.00 0.00 0.00 0.00 0.00 0.00 0.00 0.00 0.00 0.00 0.00 0.00 0.00 0.00 0.00 0.00 0.00 0.00 0.00 0.00 0.00 0.01 0.04 0.05 0.04 0.02 0.01 0.01 0.02 0.03 0.03 0.01 0.00 0.00 0.00 0.01 0.00 0.00
0.00 0.00 0.00 0.00 0.00 0.00 0.00 0.00 0.00 0.00 0.00 0.00 0.00 0.00 0.00 0.00 0.00 0.00 0.00 0.00 0.00 0.00 0.00 0.00 0.00 0.00 0.00 0.01 0.04 0.04 0.02 0.01 0.00 0.00 0.00 0.00 0.00 0.00 0.00 0.00 0.00 0.00 0.00
0.00 0.00 0.00 0.00 0.00 0.00 0.00 0.00 0.00 0.00 0.00 0.00 0.00 0.00 0.00 0.00 0.00 0.00 0.00 0.00 0.00 0.00 0.00 0.00 0.00 0.00 0.00 0.00 0.02 0.05 0.07 0.05 0.01 0.00 0.00 0.00 0.00 0.00 0.00 0.00 0.00 0.00 0.00
0.00 0.00 0.00 0.00 0.00 0.00 0.00 0.00 0.00 0.00 0.00 0.00 0.00 0.00 0.00 0.00 0.00 0.00 0.00 0.00 0.00 0.00 0.00 0.00 0.00 0.00 0.00 0.00 0.01 0.05 0.07 0.06 0.03 0.00 0.00 0.00 0.00 0.00 0.00 0.00 0.00 0.00 0.00
0.00 0.00 0.00 0.00 0.00 0.00 0.00 0.00 0.00 0.00 0.00 0.00 0.00 0.00 0.00 0.00 0.00 0.00 0.00 0.00 0.00 0.00 0.00 0.00 0.00 0.00 0.00 0.00 0.00 0.01 0.04 0.04 0.02 0.01 0.00 0.00 0.00 0.00 0.00 0.00 0.00 0.00 0.00
0.00 0.00 0.00 0.00 0.00 0.00 0.00 0.00 0.00 0.00 0.00 0.00 0.00 0.00 0.00 0.00 0.00 0.00 0.00 0.00 0.00 0.00 0.00 0.00 0.00 0.00 0.00 0.00 0.00 0.00 0.02 0.01 0.01 0.01 0.00 0.00 0.00 0.00 0.00 0.00 0.00 0.00 0.00
0.00 0.00 0.00 0.00 0.00 0.00 0.00 0.00 0.00 0.00 0.00 0.00 0.00 0.00 0.00 0.00 0.00 0.00 0.00 0.00 0.00 0.00 0.00 0.00 0.00 0.00 0.00 0.00 0.00 0.00 0.01 0.01 0.01 0.00 0.00 0.00 0.00 0.00 0.00 0.00 0.00 0.00 0.00
0.00 0.00 0.00 0.00 0.00 0.00 0.00 0.00 0.00 0.00 0.00 0.00 0.00 0.00 0.00 0.00 0.00 0.00 0.00 0.00 0.00 0.00 0.00 0.00 0.00 0.00 0.00 0.00 0.00 0.00 0.00 0.01 0.01 0.00 0.00 0.00 0.00 0.00 0.00 0.00 0.00 0.00 0.00
0.00 0.00 0.00 0.00 0.00 0.00 0.00 0.00 0.00 0.00 0.00 0.00 0.00 0.00 0.00 0.00 0.00 0.00 0.00 0.00 0.00 0.00 0.00 0.00 0.00 0.00 0.00 0.00 0.00 0.00 0.00 0.00 0.00 0.00 0.00 0.00 0.00 0.00 0.00 0.00 0.00 0.00 0.00
0.00 0.00 0.00 0.00 0.00 0.00 0.00 0.00 0.00 0.00 0.00 0.00 0.00 0.00 0.00 0.00 0.00 0.00 0.00 0.00 0.00 0.00 0.00 0.00 0.00 0.00 0.00 0.00 0.00 0.00 0.00 0.00 0.00 0.00 0.00 0.00 0.00 0.00 0.00 0.00 0.00 0.00 0.00
0.00 0.00 0.00 0.00 0.00 0.00 0.00 0.00 0.00 0.00 0.00 0.00 0.00 0.00 0.00 0.00 0.00 0.00 0.00 0.00 0.00 0.00 0.00 0.00 0.00 0.00 0.00 0.00 0.00 0.00 0.00 0.00 0.00 0.00 0.00 0.00 0.00 0.00 0.00 0.00 0.00 0.00 0.00
0.00 0.00 0.00 0.00 0.00 0.00 0.00 0.00 0.00 0.00 0.00 0.00 0.00 0.00 0.00 0.00 0.00 0.00 0.00 0.00 0.00 0.00 0.00 0.00 0.00 0.00 0.00 0.00 0.00 0.00 0.00 0.00 0.00 0.00 0.00 0.00 0.00 0.00 0.00 0.00 0.00 0.00 0.00
0.00 0.00 0.00 0.00 0.00 0.00 0.00 0.00 0.00 0.00 0.00 0.00 0.00 0.00 0.00 0.00 0.00 0.00 0.00 0.00 0.00 0.00 0.00 0.00 0.00 0.00 0.00 0.00 0.00 0.00 0.00 0.00 0.00 0.00 0.00 0.00 0.00 0.00 0.00 0.00 0.00 0.00 0.00
MSLP
1006.48 1005.76 1005.25 1004.86 1004.86 1004.45 1004.08 1003.59 1003.92 1004.00 1004.67 1005.54 1006.12 1006.96 1007.23 1007.73 1008.15 1008.55 1009.04 1009.40 1009.76 1010.03 1010.62 1011.43 1012.07 1012.85 1013.25 1013.82 1014.48 1015.09 1015.82 1016.38 1016.63 1017.54 1018.08 1018.36 1018.54 1018.63 1018.67 1018.87 1019.21 1019.63 1019.89
1006.39 1005.49 1004.93 1004.74 1004.49 1003.80 1003.45 1003.33 1002.82 1003.08 1003.42 1003.96 1004.76 1005.84 1006.50 1007.09 1007.46 1008.01 1008.39 1008.56 1008.99 1008.90 1009.55 1010.59 1011.14 1012.00 1012.62 1013.22 1013.61 1014.12 1014.93 1015.42 1015.92 1016.74 1017.49 1018.17 1018.70 1018.61 1018.57 1018.82 1019.13 1019.38 1019.69
1007.26 1005.95 1005.03 1004.51 1004.18 1003.71 1002.78 1002.53 1001.93 1002.16 1002.58 1003.25 1004.17 1005.06 1006.38 1007.05 1007.59 1007.83 1007.78 1008.34 1008.18 1008.33 1008.78 1009.63 1010.20 1010.79 1011.65 1012.30 1012.65 1013.18 1013.69 1014.24 1015.04 1015.39 1016.19 1017.34 1017.72 1018.21 1018.40 1018.48 1018.70 1019.06 1019.48
1007.49 1006.37 1005.57 1004.61 1003.77 1003.04 1002.43 1002.21 1001.40 1002.05 1002.40 1003.06 1004.11 1004.30 1004.72 1005.94 1006.09 1007.19 1006.85 1008.30 1008.16 1008.02 1008.46 1008.99 1009.59 1010.02 1010.62 1011.38 1011.98 1012.43 1012.93 1013.33 1013.69 1014.85 1014.80 1015.18 1015.64 1017.07 1018.10 1018.16 1018.23 1018.54 1018.88
1008.80 1007.25 1005.83 1004.61 1003.64 1003.46 1003.12 1002.55 1001.58 1002.36 1002.89 1002.97 1003.40 1004.25 1004.78 1005.22 1005.51 1006.17 1006.55 1007.42 1007.85 1008.03 1008.28 1008.58 1008.84 1009.24 1009.75 1010.47 1011.03 1011.68 1012.29 1012.48 1012.79 1013.13 1014.12 1014.78 1015.24 1015.53 1016.50 1017.16 1017.56 1018.14 1018.16
1008.89 1007.28 1005.66 1004.28 1003.66 1003.67 1003.40 1003.50 1002.12 1002.34 1003.12 1003.43 1003.98 1004.53 1005.51 1005.60 1005.89 1005.60 1006.38 1006.73 1007.10 1007.57 1007.80 1008.18 1008.33 1008.59 1008.92 1009.52 1010.21 1010.76 1011.36 1011.68 1011.95 1012.30 1012.90 1013.19 1013.97 1014.69 1015.13 1015.99 1016.55 1016.81 1017.47
1009.36 1007.79 1005.93 1004.63 1003.82 1004.34 1003.70 1003.69 1003.97 1003.43 1003.12 1003.27 1004.43 1006.16 1005.26 1005.83 1006.26 1006.13 1006.27 1006.72 1006.68 1007.03 1007.41 1007.76 1007.88 1008.03 1008.25 1008.74 1009.32 1009.89 1010.34 1010.83 1011.36 1011.49 1012.02 1012.36 1012.49 1013.02 1013.68 1014.53 1015.50 1016.27 1017.05
1009.51 1008.01 1005.57 1004.40 1004.30 1005.04 1005.22 1004.68 1005.17 1005.06 1004.80 1004.24 1004.66 1006.00 1006.92 1006.91 1007.06 1006.69 1006.37 1006.40 1006.63 1006.59 1007.04 1007.18 1007.36 1007.40 1007.59 1008.05 1008.58 1009.01 1009.36 1009.88 1010.43 1010.75 1011.25 1011.66 1012.06 1012.36 1012.80 1013.40 1014.48 1015.58 1016.28
1009.81 1008.46 1006.42 1005.32 1005.56 1005.88 1006.50 1006.40 1006.32 1006.51 1006.02 1006.24 1006.30 1006.58 1008.76 1007.81 1008.13 1007.11 1006.71 1006.61 1006.73 1006.64 1006.72 1006.80 1006.87 1006.87 1006.95 1007.12 1007.68 1008.22 1008.57 1008.98 1009.47 1009.85 1010.38 1010.89 1011.40 1011.92 1012.36 1012.66 1013.17 1013.86 1015.33
1010.90 1009.31 1008.08 1007.18 1006.93 1006.71 1007.43 1008.08 1008.16 1008.39 1007.29 1007.44 1008.01 1007.74 1008.76 1008.73 1008.10 1007.61 1007.56 1007.39 1007.08 1006.70 1006.49 1006.41 1006.31 1006.34 1006.39 1006.55 1006.85 1007.31 1007.79 1008.25 1008.64 1009.03 1009.58 1010.13 1010.62 1011.20 1011.72 1012.18 1012.59 1013.12 1013.59
1012.29 1011.80 1011.27 1011.01 1010.25 1008.55 1008.68 1009.33 1009.22 1008.91 1008.17 1008.55 1009.35 1008.53 1008.64 1008.22 1008.64 1008.65 1008.35 1008.23 1007.63 1007.12 1006.62 1006.21 1005.96 1005.81 1005.79 1005.96 1006.17 1006.46 1006.90 1007.30 1007.75 1008.21 1008.61 1009.23 1009.87 1010.39 1010.83 1011.47 1011.92 1012.54 1013.11
1013.86 1013.26 1013.45 1011.95 1012.36 1011.10 1010.02 1010.42 1010.49 1010.15 1009.25 1009.45 1009.35 1008.64 1009.08 1009.19 1009.68 1009.46 1008.88 1008.37 1007.69 1007.35 1006.77 1006.16 1005.70 1005.29 1005.24 1005.50 1005.56 1005.77 1005.95 1006.49 1006.83 1007.31 1007.83 1008.27 1009.04 1009.59 1010.18 1010.59 1011.10 1011.71 1012.38
1014.80 1013.88 1013.83 1013.40 1013.29 1012.93 1011.52 1011.63 1011.06 1011.35 1010.97 1010.41 1010.29 1010.45 1010.06 1010.26 1010.13 1010.06 1009.82 1009.35 1008.53 1007.59 1006.95 1006.52 1005.98 1005.09 1004.92 1004.75 1004.80 1005.03 1005.27 1005.70 1006.06 1006.49 1007.00 1007.52 1008.22 1008.73 1009.37 1009.86 1010.30 1010.78 1011.35
1015.60 1015.01 1015.10 1013.83 1013.39 1013.81 1012.29 1012.57 1012.52 1011.95 1012.10 1011.14 1011.06 1010.66 1011.03 1011.13 1010.97 1010.64 1009.85 1009.18 1008.71 1007.93 1007.41 1006.79 1006.07 1005.51 1004.63 1004.41 1004.24 1004.41 1004.75 1005.04 1005.34 1005.76 1006.31 1006.92 1007.38 1007.87 1008.53 1009.16 1009.51 1010.02 1010.62
1016.07 1016.04 1015.76 1015.20 1015.65 1015.65 1013.72 1013.38 1013.53 1014.03 1013.12 1012.05 1011.86 1012.22 1011.90 1011.63 1011.46 1010.91 1010.33 1009.67 1008.86 1007.88 1007.44 1006.87 1005.99 1005.32 1004.79 1003.93 1004.00 1004.02 1004.05 1004.46 1004.85 1005.24 1005.46 1005.96 1006.48 1006.99 1007.61 1008.31 1008.79 1009.32 1009.88
1017.37 1016.92 1016.87 1016.74 1016.63 1016.43 1015.63 1015.35 1015.49 1014.94 1014.21 1013.72 1013.26 1012.37 1011.88 1011.41 1011.52 1011.02 1010.52 1009.48 1008.56 1008.03 1007.51 1006.90 1006.23 1005.47 1004.74 1004.12 1003.56 1003.63 1003.61 1003.80 1004.28 1004.79 1005.13 1005.51 1006.08 1006.65 1007.06 1007.39 1007.84 1008.37 1009.15
1018.49 1018.04 1017.55 1016.65 1016.83 1016.25 1015.47 1014.90 1015.33 1015.31 1014.73 1014.38 1013.81 1012.92 1012.49 1012.01 1011.66 1010.84 1010.19 1009.35 1008.81 1008.22 1007.66 1007.08 1006.41 1005.58 1004.75 1004.26 1003.73 1003.22 1003.00 1003.26 1003.38 1003.95 1004.57 1005.14 1005.46 1006.02 1006.70 1007.06 1007.26 1007.60 1007.94
1020.02 1019.64 1019.24 1018.95 1018.45 1017.92 1017.16 1016.85 1016.37 1016.04 1015.38 1014.81 1014.38 1013.94 1013.34 1012.74 1012.16 1011.34 1010.65 1009.61 1008.90 1008.31 1007.69 1006.98 1006.25 1005.59 1004.81 1004.41 1003.84 1003.09 1002.65 1002.73 1003.05 1003.25 1004.06 1004.90 1005.37 1005.37 1005.96 1006.78 1007.24 1007.41 1007.43
1021.36 1021.11 1020.72 1020.21 1019.46 1018.96 1018.37 1017.76 1017.19 1016.67 1016.15 1015.92 1015.28 1014.52 1013.56 1012.95 1011.90 1011.10 1010.26 1009.57 1008.93 1008.61 1007.81 1006.98 1006.16 1005.63 1004.90 1004.37 1003.92 1003.57 1002.85 1002.52 1003.06 1003.21 1003.18 1004.35 1004.87 1004.83 1005.39 1006.55 1006.99 1007.37 1007.50
1021.83 1021.39 1021.09 1020.77 1020.09 1019.62 1018.93 1018.32 1017.90 1017.31 1016.80 1016.08 1014.95 1013.94 1013.31 1012.75 1011.96 1011.19 1010.39 1009.87 1009.41 1008.73 1007.75 1006.64 1006.16 1005.64 1005.05 1004.56 1003.99 1003.43 1002.70 1002.67 1003.16 1003.54 1003.29 1004.50 1004.16 1004.46 1005.02 1005.95 1006.53 1007.38 1007.47
1021.49 1021.17 1020.78 1020.55 1020.36 1019.83 1019.07 1018.53 1017.67 1017.11 1016.72 1015.67 1014.66 1014.04 1013.68 1012.99 1012.11 1011.43 1010.74 1010.30 1009.75 1008.87 1007.68 1006.67 1005.93 1005.47 1005.20 1004.65 1004.13 1003.62 1002.90 1002.66 1002.72 1003.35 1003.55 1003.92 1003.97 1004.28 1005.09 1005.34 1005.99 1006.46 1007.06
1021.36 1021.37 1021.21 1020.95 1020.62 1020.02 1019.43 1018.93 1018.22 1017.34 1016.11 1015.33 1014.75 1014.36 1014.06 1013.34 1012.59 1012.05 1011.61 1010.95 1010.07 1008.90 1007.59 1006.62 1005.75 1005.21 1005.16 1004.83 1004.39 1003.94 1003.15 1002.88 1002.99 1003.18 1002.94 1003.64 1004.35 1004.70 1005.49 1005.73 1006.20 1006.78 1007.21
1022.55 1022.25 1021.34 1020.48 1020.05 1019.77 1019.31 1018.46 1017.82 1017.25 1016.62 1016.21 1015.86 1015.23 1014.53 1013.85 1013.37 1012.92 1012.20 1011.31 1010.11 1008.99 1007.99 1007.06 1006.10 1005.17 1005.05 1005.05 1004.69 1004.39 1003.80 1003.21 1003.43 1003.49 1003.98 1003.71 1004.78 1005.37 1006.11 1006.38 1006.70 1007.15 1007.58
1023.50 1023.05 1022.42 1021.65 1021.07 1020.42 1019.82 1019.21 1018.54 1018.05 1017.12 1016.60 1016.06 1015.56 1015.08 1014.23 1013.66 1013.01 1011.97 1011.14 1010.16 1009.05 1008.23 1007.30 1006.50 1005.35 1005.14 1005.22 1004.92 1004.92 1004.70 1004.01 1003.97 1004.25 1004.97 1005.19 1005.56 1005.96 1006.64 1007.10 1007.56 1007.74 1008.12
1023.50 1023.35 1023.34 1023.07 1022.73 1022.11 1021.12 1020.08 1019.17 1018.91 1018.24 1017.70 1016.74 1015.98 1015.36 1014.63 1013.90 1012.98 1012.35 1011.52 1010.62 1009.65 1008.56 1007.47 1006.56 1005.61 1005.05 1004.93 1004.99 1004.98 1004.98 1004.65 1005.03 1005.32 1005.71 1006.28 1006.57 1006.67 1007.17 1007.69 1008.29 1008.75 1009.34
1024.25 1023.85 1023.47 1022.97 1022.11 1020.98 1020.28 1020.10 1019.84 1019.40 1018.66 1017.56 1017.11 1016.79 1016.07 1015.19 1014.18 1013.26 1012.25 1011.27 1010.36 1009.68 1009.19 1007.65 1006.49 1005.48 1005.07 1004.84 1004.84 1005.12 1005.46 1005.44 1005.38 1005.47 1005.58 1006.67 1007.26 1007.44 1007.12 1007.72 1008.66 1009.50 1010.03
Thickness
5651 5658 5665 5668 5669 5675 5681 5686 5686 5690 5687 5681 5680 5676 5677 5677 5675 5674 5668 5665 5664 5664 5660 5656 5652 5648 5647 5645 5640 5636 5631 5627 5626 5618 5613 5612 5609 5607 5606 5604 5603 5602 5602
5638 5648 5653 5658 5662 5672 5676 5679 5687 5687 5682 5684 5679 5672 5673 5670 5669 5665 5663 5663 5660 5663 5661 5654 5651 5646 5644 5642 5640 5636 5629 5626 5625 5618 5612 5608 5605 5604 5604 5602 5600 5599 5598
5616 5631 5641 5644 5649 5659 5673 5676 5682 5682 5680 5679 5673 5666 5661 5655 5652 5653 5654 5652 5655 5657 5657 5651 5651 5648 5644 5641 5641 5636 5633 5629 5626 5624 5616 5607 5607 5602 5601 5600 5599 5598 5597
5603 5615 5623 5633 5639 5652 5661 5665 5675 5672 5669 5667 5661 5662 5660 5653 5653 5645 5651 5639 5643 5650 5647 5647 5647 5646 5644 5640 5638 5636 5634 5632 5630 5622 5623 5622 5620 5606 5600 5598 5597 5596 5596
5576 5593 5606 5619 5631 5638 5644 5651 5660 5654 5652 5654 5653 5649 5639 5643 5645 5643 5642 5638 5633 5637 5639 5641 5645 5646 5644 5640 5637 5634 5631 5632 5632 5630 5621 5618 5617 5615 5607 5601 5599 5595 5597
5561 5576 5592 5606 5617 5622 5626 5629 5644 5643 5639 5639 5636 5637 5627 5629 5629 5636 5633 5633 5633 5632 5636 5634 5640 5642 5642 5640 5635 5633 5630 5630 5630 5629 5627 5625 5620 5615 5613 5605 5601 5601 5597
5541 5553 5569 5587 5598 5601 5610 5614 5614 5621 5627 5627 5622 5607 5620 5618 5618 5622 5623 5622 5624 5625 5626 5627 5631 5636 5639 5637 5633 5631 5631 5629 5626 5629 5625 5624 5626 5621 5619 5613 5604 5598 5593
5518 5532 5555 5571 5575 5577 5579 5589 5589 5592 5598 5605 5605 5597 5591 5596 5599 5607 5613 5615 5616 5619 5619 5622 5625 5630 5634 5633 5631 5630 5629 5627 5626 5627 5625 5623 5621 5620 5619 5613 5603 5595 5592
5502 5515 5535 5547 5549 5553 5552 5557 5565 5568 5575 5576 5581 5583 5567 5580 5581 5592 5599 5604 5605 5610 5612 5615 5619 5624 5629 5632 5629 5626 5627 5626 5626 5626 5624 5621 5619 5615 5613 5612 5609 5603 5590
5480 5497 5515 5522 5525 5531 5531 5530 5537 5539 5554 5559 5558 5563 5557 5562 5571 5578 5581 5586 5591 5598 5604 5607 5612 5617 5622 5625 5625 5623 5624 5623 5624 5623 5622 5620 5618 5614 5610 5607 5605 5602 5599
5463 5467 5471 5473 5484 5503 5510 5512 5518 5526 5539 5542 5536 5546 5549 5557 5557 5560 5565 5568 5576 5583 5591 5599 5605 5611 5616 5619 5621 5622 5622 5623 5623 5621 5621 5619 5615 5613 5611 5605 5601 5598 5596
5444 5451 5449 5460 5447 5470 5489 5494 5500 5508 5521 5525 5529 5539 5539 5542 5540 5544 5550 5556 5565 5571 5580 5590 5598 5605 5609 5611 5615 5618 5620 5620 5621 5620 5619 5618 5613 5610 5607 5604 5600 5597 5593
5430 5433 5439 5443 5430 5450 5468 5474 5485 5490 5498 5509 5514 5516 5524 5525 5528 5530 5532 5539 5549 5558 5566 5575 5584 5597 5602 5608 5612 5614 5615 5616 5618 5616 5616 5615 5611 5609 5605 5602 5598 5596 5592
5421 5422 5422 5432 5422 5428 5445 5459 5465 5471 5478 5494 5500 5506 5508 5509 5512 5517 5524 5531 5537 5545 5552 5561 5572 5581 5595 5601 5606 5609 5609 5611 5614 5612 5611 5609 5609 5607 5602 5598 5596 5593 5588
5417 5415 5416 5422 5411 5407 5433 5443 5449 5449 5463 5478 5485 5485 5492 5497 5501 5507 5512 5519 5527 5537 5542 5548 5561 5573 5581 5594 5598 5601 5605 5606 5606 5606 5608 5608 5608 5604 5601 5597 5595 5590 5584
5403 5408 5408 5409 5408 5405 5415 5420 5424 5435 5446 5456 5464 5476 5482 5490 5493 5499 5505 5513 5522 5528 5533 5540 5548 5558 5571 5580 5587 5592 5597 5599 5600 5600 5600 5601 5597 5595 5593 5593 5591 5589 5581
5390 5393 5396 5405 5402 5407 5419 5426 5424 5430 5440 5445 5452 5463 5469 5476 5484 5493 5500 5507 5512 5519 5523 5529 5537 5547 5559 5566 5575 5582 5591 5592 5596 5597 5595 5593 5593 5591 5588 5586 5585 5583 5582
5374 5377 5380 5382 5388 5394 5402 5407 5411 5416 5425 5433 5440 5445 5453 5461 5471 5480 5487 5496 5503 5510 5516 5521 5529 5537 5546 5552 5561 5572 5581 5584 5588 5589 5586 5584 5582 5586 5584 5579 5577 5576 5577
5361 5364 5369 5372 5378 5382 5388 5395 5401 5407 5413 5416 5424 5433 5443 5450 5463 5472 5481 5487 5493 5496 5505 5512 5521 5528 5535 5541 5547 5554 5567 5573 5572 5575 5569 5575 5575 5578 5577 5570 5568 5564 5565
5352 5358 5361 5363 5369 5373 5379 5386 5390 5398 5402 5410 5421 5431 5437 5444 5452 5460 5468 5474 5479 5486 5496 5506 5510 5516 5523 5529 5536 5544 5556 5562 5561 5560 5563 5561 5570 5569 5568 5564 5562 5559 5558
5350 5353 5357 5359 5361 5366 5372 5378 5386 5393 5397 5405 5414 5421 5425 5432 5441 5448 5455 5459 5465 5474 5485 5496 5502 5508 5512 5517 5523 5531 5541 5551 5555 5553 5556 5557 5561 5562 5558 5557 5557 5557 5551
5347 5347 5349 5351 5354 5359 5364 5368 5373 5381 5389 5397 5403 5407 5410 5417 5424 5430 5434 5440 5450 5460 5473 5484 5494 5499 5499 5505 5510 5516 5527 5533 5542 5546 5550 5548 5546 5548 5543 5544 5545 5543 5539
5335 5336 5344 5351 5353 5354 5356 5361 5364 5369 5374 5378 5381 5386 5391 5397 5401 5406 5413 5422 5433 5444 5454 5464 5477 5488 5489 5490 5496 5500 5509 5519 5521 5527 5529 5537 5532 5529 5527 5530 5531 5528 5526
5324 5326 5329 5334 5337 5341 5345 5349 5353 5354 5362 5365 5366 5369 5370 5377 5381 5387 5398 5405 5415 5426 5436 5445 5455 5472 5475 5474 5480 5483 5489 5499 5505 5508 5509 5513 5513 5512 5511 5512 5511 5512 5511
5319 5318 5314 5314 5314 5317 5325 5333 5340 5340 5343 5345 5348 5352 5354 5357 5361 5368 5375 5381 5391 5403 5415 5426 5437 5451 5462 5462 5464 5470 5474 5481 5484 5488 5490 5490 5493 5495 5496 5495 5493 5493 5491
5313 5314 5315 5316 5321 5329 5331 5328 5326 5326 5329 5334 5333 5332 5334 5338 5344 5350 5355 5366 5375 5381 5389 5405 5418 5431 5440 5447 5451 5454 5455 5461 5468 5474 5479 5477 5475 5478 5485 5483 5479 5476 5475